TimeCST,TemperatureF,Dew PointF,Humidity,Sea Level PressureIn,VisibilityMPH,Wind Direction,Wind SpeedMPH,Gust SpeedMPH,PrecipitationIn,Events,Conditions,WindDirDegrees,DateUTC
12:15 AM,50.9,25.5,37,30.26,10.0,SE,6.9,-,N/A,,Clear,140,2013-02-17 06:15:00
12:35 AM,50.0,26.2,40,30.26,10.0,SE,5.8,-,N/A,,Clear,140,2013-02-17 06:35:00
12:55 AM,49.1,27.1,43,30.25,10.0,SE,5.8,-,N/A,,Clear,140,2013-02-17 06:55:00
1:15 AM,47.8,27.9,46,30.25,10.0,SE,4.6,-,N/A,,Clear,140,2013-02-17 07:15:00
1:35 AM,48.2,29.3,48,30.24,10.0,SSE,6.9,-,N/A,,Clear,150,2013-02-17 07:35:00
1:55 AM,48.6,30.6,50,30.24,10.0,SE,6.9,-,N/A,,Clear,140,2013-02-17 07:55:00
2:15 AM,48.2,31.1,52,30.23,10.0,SE,6.9,-,N/A,,Clear,140,2013-02-17 08:15:00
2:35 AM,47.1,31.1,54,30.22,10.0,ESE,4.6,-,N/A,,Clear,120,2013-02-17 08:35:00
2:55 AM,45.5,31.1,57,30.21,10.0,ESE,4.6,-,N/A,,Clear,120,2013-02-17 08:55:00
3:15 AM,45.1,31.8,60,30.20,10.0,ESE,5.8,-,N/A,,Clear,110,2013-02-17 09:15:00
3:35 AM,45.7,32.5,60,30.20,10.0,SE,5.8,-,N/A,,Clear,130,2013-02-17 09:35:00
3:55 AM,45.5,32.9,61,30.20,10.0,ESE,4.6,-,N/A,,Clear,120,2013-02-17 09:55:00
4:15 AM,44.6,32.9,64,30.20,10.0,ESE,3.5,-,N/A,,Clear,120,2013-02-17 10:15:00
4:35 AM,44.6,32.9,64,30.19,10.0,SE,5.8,-,N/A,,Clear,130,2013-02-17 10:35:00
4:55 AM,44.6,33.3,64,30.19,10.0,SE,4.6,-,N/A,,Clear,140,2013-02-17 10:55:00
5:15 AM,44.8,33.8,65,30.18,10.0,SE,5.8,-,N/A,,Clear,140,2013-02-17 11:15:00
5:35 AM,45.7,34.9,66,30.18,10.0,SE,6.9,-,N/A,,Clear,140,2013-02-17 11:35:00
5:55 AM,46.0,35.6,67,30.18,10.0,SE,5.8,-,N/A,,Clear,140,2013-02-17 11:55:00
6:15 AM,45.9,35.8,68,30.18,10.0,SE,4.6,-,N/A,,Clear,140,2013-02-17 12:15:00
6:35 AM,45.5,35.6,68,30.18,10.0,SE,4.6,-,N/A,,Clear,140,2013-02-17 12:35:00
6:55 AM,45.3,36.0,70,30.19,10.0,SE,4.6,-,N/A,,Clear,140,2013-02-17 12:55:00
7:15 AM,45.1,36.0,70,30.19,10.0,Calm,Calm,-,N/A,,Clear,0,2013-02-17 13:15:00
7:35 AM,45.3,36.1,70,30.19,10.0,Calm,Calm,-,N/A,,Clear,0,2013-02-17 13:35:00
7:55 AM,46.8,36.9,68,30.19,10.0,ESE,3.5,-,N/A,,Clear,120,2013-02-17 13:55:00
8:55 AM,54.9,39.2,56,30.19,10.0,SE,6.9,-,N/A,,Clear,140,2013-02-17 14:55:00
9:15 AM,58.1,40.8,53,30.19,10.0,SSE,11.5,-,N/A,,Clear,150,2013-02-17 15:15:00
9:35 AM,60.3,41.4,50,30.19,10.0,SE,11.5,-,N/A,,Clear,140,2013-02-17 15:35:00
9:55 AM,62.1,41.9,48,30.19,10.0,SSE,11.5,18.4,N/A,,Clear,150,2013-02-17 15:55:00
10:15 AM,64.0,43.0,46,30.17,10.0,SSE,15.0,20.7,N/A,,Clear,150,2013-02-17 16:15:00
10:35 AM,66.2,43.7,44,30.16,10.0,SE,13.8,24.2,N/A,,Clear,140,2013-02-17 16:35:00
10:55 AM,67.3,44.6,44,30.15,10.0,SSE,20.7,25.3,N/A,,Scattered Clouds,160,2013-02-17 16:55:00
11:15 AM,68.2,44.6,43,30.14,10.0,SE,18.4,24.2,N/A,,Mostly Cloudy,140,2013-02-17 17:15:00
11:35 AM,69.6,44.6,41,30.13,10.0,SE,21.9,29.9,N/A,,Mostly Cloudy,140,2013-02-17 17:35:00
11:55 AM,70.0,44.6,40,30.12,10.0,SE,17.3,26.5,N/A,,Mostly Cloudy,140,2013-02-17 17:55:00
12:15 PM,69.8,44.6,40,30.10,10.0,SSE,19.6,26.5,N/A,,Overcast,150,2013-02-17 18:15:00
12:55 PM,72.5,43.9,36,30.07,10.0,SE,19.6,24.2,N/A,,Mostly Cloudy,140,2013-02-17 18:55:00
1:15 PM,73.4,43.9,35,30.05,10.0,SE,18.4,25.3,N/A,,Mostly Cloudy,140,2013-02-17 19:15:00
1:35 PM,74.3,44.2,34,30.04,10.0,SE,16.1,24.2,N/A,,Mostly Cloudy,140,2013-02-17 19:35:00
1:55 PM,74.3,44.2,34,30.02,10.0,SE,18.4,25.3,N/A,,Mostly Cloudy,140,2013-02-17 19:55:00
2:15 PM,74.8,44.2,33,30.01,10.0,SE,11.5,27.6,N/A,,Mostly Cloudy,140,2013-02-17 20:15:00
2:35 PM,76.1,43.7,31,29.99,10.0,SSE,16.1,32.2,N/A,,Mostly Cloudy,150,2013-02-17 20:35:00
2:55 PM,76.1,43.5,31,29.98,10.0,SE,17.3,26.5,N/A,,Mostly Cloudy,140,2013-02-17 20:55:00
3:15 PM,76.5,43.7,31,29.97,10.0,SE,11.5,28.8,N/A,,Mostly Cloudy,140,2013-02-17 21:15:00
3:35 PM,76.8,43.7,31,29.96,10.0,SSE,18.4,27.6,N/A,,Scattered Clouds,150,2013-02-17 21:35:00
3:55 PM,76.3,44.2,32,29.95,10.0,SE,16.1,31.1,N/A,,Scattered Clouds,130,2013-02-17 21:55:00
4:15 PM,76.3,45.0,33,29.95,10.0,SE,20.7,27.6,N/A,,Mostly Cloudy,130,2013-02-17 22:15:00
4:35 PM,75.2,45.9,35,29.94,10.0,SE,18.4,26.5,N/A,,Scattered Clouds,140,2013-02-17 22:35:00
4:55 PM,75.2,46.4,36,29.94,10.0,ESE,18.4,28.8,N/A,,Scattered Clouds,120,2013-02-17 22:55:00
5:15 PM,73.8,47.3,39,29.94,10.0,SE,20.7,32.2,N/A,,Clear,130,2013-02-17 23:15:00
5:35 PM,73.0,47.5,40,29.94,10.0,SE,16.1,27.6,N/A,,Clear,130,2013-02-17 23:35:00
5:55 PM,71.6,48.4,44,29.94,10.0,ESE,19.6,29.9,N/A,,Clear,120,2013-02-17 23:55:00
6:15 PM,70.5,49.1,47,29.94,10.0,SE,21.9,29.9,N/A,,Clear,130,2013-02-18 00:15:00
6:35 PM,69.4,49.5,49,29.94,10.0,SE,19.6,27.6,N/A,,Clear,130,2013-02-18 00:35:00
6:55 PM,68.7,50.0,51,29.94,10.0,ESE,19.6,29.9,N/A,,Clear,120,2013-02-18 00:55:00
7:15 PM,68.0,50.2,53,29.94,10.0,ESE,13.8,24.2,N/A,,Clear,120,2013-02-18 01:15:00
7:35 PM,67.3,50.5,55,29.94,10.0,SE,18.4,23.0,N/A,,Clear,130,2013-02-18 01:35:00
7:55 PM,67.1,50.9,56,29.95,10.0,SE,18.4,27.6,N/A,,Clear,130,2013-02-18 01:55:00
8:15 PM,66.9,51.1,57,29.96,10.0,ESE,17.3,28.8,N/A,,Clear,120,2013-02-18 02:15:00
8:35 PM,66.6,51.4,58,29.96,10.0,SE,17.3,24.2,N/A,,Clear,130,2013-02-18 02:35:00
8:55 PM,66.2,51.8,60,29.97,10.0,SE,16.1,23.0,N/A,,Clear,130,2013-02-18 02:55:00
9:15 PM,65.8,52.0,61,29.97,10.0,SE,18.4,27.6,N/A,,Clear,130,2013-02-18 03:15:00
9:35 PM,65.5,52.2,62,29.97,10.0,SE,17.3,23.0,N/A,,Clear,130,2013-02-18 03:35:00
9:55 PM,65.3,52.5,63,29.97,10.0,SE,16.1,24.2,N/A,,Clear,140,2013-02-18 03:55:00
10:15 PM,64.8,52.7,65,29.96,10.0,SE,19.6,27.6,N/A,,Clear,140,2013-02-18 04:15:00
10:35 PM,64.6,53.6,68,29.97,10.0,SE,15.0,24.2,N/A,,Clear,140,2013-02-18 04:35:00
10:55 PM,64.4,53.8,68,29.97,10.0,SE,15.0,26.5,N/A,,Scattered Clouds,140,2013-02-18 04:55:00
11:15 PM,64.0,54.0,70,29.96,10.0,SE,15.0,25.3,N/A,,Scattered Clouds,140,2013-02-18 05:15:00
11:35 PM,63.9,54.5,72,29.96,10.0,SE,16.1,24.2,N/A,,Scattered Clouds,140,2013-02-18 05:35:00
11:55 PM,63.9,54.9,72,29.96,10.0,SE,13.8,21.9,N/A,,Scattered Clouds,140,2013-02-18 05:55:00